TimeCDT,TemperatureF,Dew PointF,Humidity,Sea Level PressureIn,VisibilityMPH,Wind Direction,Wind SpeedMPH,Gust SpeedMPH,PrecipitationIn,Events,Conditions,WindDirDegrees,DateUTC
12:10 AM,51.8,41.0,67,29.89,10.0,South,6.9,-,N/A,,Clear,180,2013-10-08 05:10:00
12:33 AM,50.0,42.8,76,29.88,10.0,South,8.1,-,N/A,,Clear,180,2013-10-08 05:33:00
12:52 AM,50.0,42.8,76,29.88,10.0,South,6.9,-,N/A,,Clear,180,2013-10-08 05:52:00
1:13 AM,48.2,42.8,82,29.87,10.0,South,9.2,-,N/A,,Clear,180,2013-10-08 06:13:00
1:32 AM,48.2,42.8,82,29.87,10.0,South,8.1,-,N/A,,Clear,170,2013-10-08 06:32:00
1:53 AM,48.2,42.8,82,29.86,10.0,South,9.2,-,N/A,,Clear,180,2013-10-08 06:53:00
2:13 AM,50.0,42.8,76,29.85,10.0,South,9.2,-,N/A,,Clear,180,2013-10-08 07:13:00
2:32 AM,51.8,44.6,76,29.85,10.0,South,9.2,-,N/A,,Clear,180,2013-10-08 07:32:00
2:53 AM,51.8,44.6,76,29.84,10.0,South,6.9,-,N/A,,Clear,180,2013-10-08 07:53:00
3:13 AM,51.8,44.6,76,29.83,10.0,South,9.2,-,N/A,,Clear,180,2013-10-08 08:13:00
3:32 AM,51.8,44.6,76,29.82,10.0,South,10.4,-,N/A,,Clear,180,2013-10-08 08:32:00
3:53 AM,51.8,44.6,76,29.81,10.0,South,11.5,-,N/A,,Clear,170,2013-10-08 08:53:00
4:13 AM,51.8,44.6,76,29.80,10.0,South,10.4,-,N/A,,Clear,180,2013-10-08 09:13:00
4:32 AM,51.8,42.8,71,29.80,10.0,South,11.5,18.4,N/A,,Clear,180,2013-10-08 09:32:00
4:53 AM,51.8,42.8,71,29.78,10.0,South,12.7,-,N/A,,Clear,170,2013-10-08 09:53:00
5:12 AM,51.8,42.8,71,29.77,10.0,South,12.7,-,N/A,,Clear,180,2013-10-08 10:12:00
5:33 AM,51.8,42.8,71,29.78,10.0,South,10.4,-,N/A,,Clear,180,2013-10-08 10:33:00
5:53 AM,51.8,42.8,71,29.77,10.0,South,10.4,-,N/A,,Clear,180,2013-10-08 10:53:00
6:12 AM,51.8,42.8,71,29.77,10.0,South,10.4,-,N/A,,Clear,180,2013-10-08 11:12:00
6:33 AM,51.8,42.8,71,29.77,10.0,South,11.5,-,N/A,,Clear,180,2013-10-08 11:33:00
6:53 AM,51.8,42.8,71,29.77,10.0,South,10.4,-,N/A,,Clear,190,2013-10-08 11:53:00
7:12 AM,53.6,42.8,67,29.76,10.0,SSW,12.7,18.4,N/A,,Clear,200,2013-10-08 12:12:00
7:33 AM,53.6,42.8,67,29.76,10.0,SSW,13.8,18.4,N/A,,Clear,210,2013-10-08 12:33:00
7:53 AM,53.6,42.8,67,29.76,10.0,SSW,16.1,21.9,N/A,,Clear,200,2013-10-08 12:53:00
8:12 AM,53.6,42.8,67,29.76,10.0,SSW,12.7,20.7,N/A,,Clear,200,2013-10-08 13:12:00
8:33 AM,53.6,42.8,67,29.75,10.0,SSW,15.0,19.6,N/A,,Clear,200,2013-10-08 13:33:00
8:53 AM,55.4,44.6,67,29.76,10.0,SSW,12.7,-,N/A,,Clear,210,2013-10-08 13:53:00
9:12 AM,57.2,44.6,63,29.75,10.0,SSW,16.1,21.9,N/A,,Clear,210,2013-10-08 14:12:00
9:33 AM,60.8,44.6,55,29.74,10.0,SSW,16.1,20.7,N/A,,Clear,210,2013-10-08 14:33:00
9:53 AM,62.6,44.6,52,29.74,10.0,SSW,13.8,23.0,N/A,,Clear,200,2013-10-08 14:53:00
10:12 AM,64.4,44.6,49,29.73,10.0,SSW,17.3,26.5,N/A,,Clear,210,2013-10-08 15:12:00
10:33 AM,64.4,44.6,49,29.72,10.0,SW,20.7,27.6,N/A,,Clear,220,2013-10-08 15:33:00
10:53 AM,68.0,44.6,43,29.72,10.0,SSW,19.6,25.3,N/A,,Clear,210,2013-10-08 15:53:00
11:12 AM,71.6,44.6,38,29.72,10.0,SSW,17.3,28.8,N/A,,Clear,210,2013-10-08 16:12:00
11:33 AM,71.6,42.8,35,29.71,10.0,SW,25.3,33.4,N/A,,Clear,220,2013-10-08 16:33:00
11:53 AM,71.6,42.8,35,29.71,10.0,SW,23.0,31.1,N/A,,Clear,220,2013-10-08 16:53:00
12:12 PM,73.4,42.8,33,29.70,10.0,SW,25.3,33.4,N/A,,Clear,220,2013-10-08 17:12:00
12:33 PM,75.2,42.8,31,29.70,10.0,SW,26.5,34.5,N/A,,Clear,220,2013-10-08 17:33:00
12:52 PM,75.2,44.6,34,29.70,10.0,SW,19.6,33.4,N/A,,Clear,220,2013-10-08 17:52:00
1:12 PM,73.4,42.8,33,29.71,10.0,SW,20.7,27.6,N/A,,Clear,230,2013-10-08 18:12:00
1:33 PM,75.2,42.8,31,29.69,10.0,SW,23.0,33.4,N/A,,Clear,230,2013-10-08 18:33:00
1:52 PM,77.0,44.6,32,29.69,10.0,SW,20.7,32.2,N/A,,Clear,220,2013-10-08 18:52:00
2:12 PM,78.8,44.6,30,29.69,10.0,SW,20.7,27.6,N/A,,Clear,220,2013-10-08 19:12:00
2:33 PM,78.8,44.6,30,29.68,10.0,SW,20.7,25.3,N/A,,Clear,220,2013-10-08 19:33:00
2:52 PM,77.0,42.8,29,29.68,10.0,SW,20.7,28.8,N/A,,Clear,230,2013-10-08 19:52:00
3:13 PM,77.0,42.8,29,29.69,10.0,SW,17.3,27.6,N/A,,Clear,220,2013-10-08 20:13:00
3:33 PM,77.0,44.6,32,29.69,10.0,SSW,19.6,29.9,N/A,,Clear,210,2013-10-08 20:33:00
3:52 PM,78.8,44.6,30,29.69,10.0,SW,23.0,31.1,N/A,,Clear,220,2013-10-08 20:52:00
4:13 PM,77.0,44.6,32,29.69,10.0,SW,23.0,29.9,N/A,,Clear,220,2013-10-08 21:13:00
4:33 PM,75.2,44.6,34,29.70,10.0,SSW,23.0,34.5,N/A,,Clear,210,2013-10-08 21:33:00
4:52 PM,73.4,44.6,36,29.71,10.0,SW,19.6,24.2,N/A,,Clear,220,2013-10-08 21:52:00
5:13 PM,71.6,44.6,38,29.71,10.0,SSW,16.1,23.0,N/A,,Clear,210,2013-10-08 22:13:00
5:33 PM,71.6,46.4,41,29.71,10.0,SSW,9.2,-,N/A,,Clear,200,2013-10-08 22:33:00
5:52 PM,71.6,46.4,41,29.72,10.0,SSW,11.5,-,N/A,,Clear,200,2013-10-08 22:52:00
6:13 PM,69.8,46.4,43,29.72,10.0,SSW,11.5,-,N/A,,Clear,200,2013-10-08 23:13:00
6:33 PM,69.8,46.4,43,29.73,10.0,South,9.2,-,N/A,,Clear,190,2013-10-08 23:33:00
6:52 PM,68.0,46.4,46,29.74,10.0,South,9.2,-,N/A,,Clear,190,2013-10-08 23:52:00
7:13 PM,66.2,46.4,49,29.75,10.0,SSW,10.4,-,N/A,,Clear,200,2013-10-09 00:13:00
7:32 PM,66.2,46.4,49,29.75,10.0,South,12.7,-,N/A,,Clear,190,2013-10-09 00:32:00
7:52 PM,66.2,46.4,49,29.76,10.0,SSW,12.7,18.4,N/A,,Clear,200,2013-10-09 00:52:00
8:13 PM,66.2,46.4,49,29.76,10.0,SSW,13.8,-,N/A,,Clear,200,2013-10-09 01:13:00
8:32 PM,66.2,46.4,49,29.77,10.0,SSW,10.4,-,N/A,,Clear,200,2013-10-09 01:32:00
8:52 PM,64.4,46.4,52,29.77,10.0,SSW,11.5,-,N/A,,Clear,200,2013-10-09 01:52:00
9:13 PM,62.6,46.4,55,29.78,10.0,South,10.4,-,N/A,,Clear,190,2013-10-09 02:13:00
9:32 PM,62.6,46.4,55,29.79,10.0,SSW,9.2,-,N/A,,Clear,200,2013-10-09 02:32:00
9:53 PM,62.6,46.4,55,29.79,10.0,South,9.2,-,N/A,,Clear,190,2013-10-09 02:53:00
10:13 PM,62.6,46.4,55,29.80,10.0,SSW,11.5,-,N/A,,Clear,200,2013-10-09 03:13:00
10:32 PM,62.6,46.4,55,29.80,10.0,SSW,11.5,-,N/A,,Clear,200,2013-10-09 03:32:00
10:53 PM,62.6,46.4,55,29.81,10.0,SSW,11.5,-,N/A,,Clear,200,2013-10-09 03:53:00
11:13 PM,62.6,46.4,55,29.81,10.0,SSW,11.5,-,N/A,,Clear,200,2013-10-09 04:13:00
11:32 PM,62.6,46.4,55,29.82,10.0,SSW,11.5,-,N/A,,Clear,200,2013-10-09 04:32:00
11:53 PM,60.8,46.4,59,29.82,10.0,SSW,11.5,-,N/A,,Clear,200,2013-10-09 04:53:00